• In Deutschland
  • Länderverzeichnis
  • Für 7 Tage
  • Wassertemperatur
  • Satellitenkarten
  • Wetterkarte
  • Widgets
  • user-avatar
    Anmelden

    Stündliche Wetter Rees

    Heute, 13 Dezember, Mittwoch

    Zeit Temperatur Niederschläge Wind Luftdruck Luftfeuchtigkeit
    00:00 -1°C° 0 mm 5 m/S 758 mmHg 90%
    01:00 -1°C° 0 mm 5 m/S 757 mmHg 89%
    02:00 -1°C° 0 mm 5 m/S 756 mmHg 89%
    03:00 -2°C° 0 mm 6 m/S 755 mmHg 88%
    04:00 -2°C° 0 mm 6 m/S 755 mmHg 88%
    05:00 -1°C° 0 mm 6 m/S 754 mmHg 87%
    06:00 -1°C° 0 mm 7 m/S 753 mmHg 86%
    07:00 0°C° 1 mm 7 m/S 752 mmHg 87%
    08:00 0°C° 1 mm 7 m/S 751 mmHg 87%
    09:00 0°C° 1 mm 7 m/S 750 mmHg 88%
    10:00 +2°C° 1,3 mm 7 m/S 749 mmHg 89%
    11:00 +1°C° 1,3 mm 8 m/S 748 mmHg 89%
    12:00 +1°C° 1,3 mm 8 m/S 747 mmHg 90%
    13:00 +3°C° 0,9 mm 7 m/S 747 mmHg 91%
    14:00 +3°C° 0,9 mm 7 m/S 746 mmHg 92%
    15:00 +3°C° 0,9 mm 6 m/S 745 mmHg 93%
    16:00 +4°C° 0,2 mm 7 m/S 744 mmHg 92%
    17:00 +4°C° 0,2 mm 7 m/S 743 mmHg 91%
    18:00 +4°C° 0,2 mm 7 m/S 742 mmHg 91%
    19:00 +4°C° 2,4 mm 8 m/S 741 mmHg 89%
    20:00 +4°C° 2,4 mm 8 m/S 740 mmHg 87%
    21:00 +4°C° 2,4 mm 8 m/S 739 mmHg 86%
    22:00 +3°C° 0,1 mm 7 m/S 740 mmHg 83%
    23:00 +2°C° 0,1 mm 6 m/S 740 mmHg 80%

    Morgen, 14 Dezember, Donnerstag

    Zeit Temperatur Niederschläge Wind Luftdruck Luftfeuchtigkeit
    00:00 +1°C° 0,1 mm 5 m/S 740 mmHg 77%
    01:00 +1°C° 0,9 mm 5 m/S 740 mmHg 79%
    02:00 +1°C° 0,9 mm 6 m/S 740 mmHg 81%
    03:00 +1°C° 0,9 mm 6 m/S 740 mmHg 83%
    04:00 0°C° 0,8 mm 7 m/S 741 mmHg 80%
    05:00 0°C° 0,8 mm 7 m/S 742 mmHg 77%
    06:00 0°C° 0,8 mm 7 m/S 743 mmHg 74%
    07:00 0°C° 0,1 mm 7 m/S 743 mmHg 74%
    08:00 0°C° 0,1 mm 7 m/S 744 mmHg 75%
    09:00 0°C° 0,1 mm 7 m/S 744 mmHg 75%
    10:00 +2°C° 0,1 mm 7 m/S 744 mmHg 75%
    11:00 +2°C° 0,1 mm 7 m/S 744 mmHg 74%
    12:00 +2°C° 0,1 mm 8 m/S 744 mmHg 73%
    13:00 +2°C° 0,1 mm 7 m/S 744 mmHg 75%
    14:00 +2°C° 0,1 mm 6 m/S 743 mmHg 78%
    15:00 +2°C° 0,1 mm 5 m/S 743 mmHg 80%
    16:00 +1°C° 0 mm 5 m/S 742 mmHg 82%
    17:00 +1°C° 0 mm 4 m/S 742 mmHg 83%
    18:00 +1°C° 0 mm 4 m/S 742 mmHg 85%
    19:00 +1°C° 0 mm 4 m/S 741 mmHg 87%
    20:00 0°C° 0 mm 4 m/S 741 mmHg 88%
    21:00 0°C° 0 mm 4 m/S 741 mmHg 90%
    22:00 0°C° 0 mm 4 m/S 742 mmHg 89%
    23:00 0°C° 0 mm 4 m/S 742 mmHg 88%

    übermorgen, 15 Dezember, Freitag

    Zeit Temperatur Niederschläge Wind Luftdruck Luftfeuchtigkeit
    00:00 -1°C° 0 mm 4 m/S 742 mmHg 87%
    01:00 -1°C° 0 mm 4 m/S 742 mmHg 87%
    02:00 -1°C° 0 mm 4 m/S 743 mmHg 87%
    03:00 -1°C° 0 mm 4 m/S 743 mmHg 86%
    04:00 -1°C° 0 mm 4 m/S 743 mmHg 87%
    05:00 0°C° 0 mm 3 m/S 743 mmHg 87%
    06:00 0°C° 0 mm 3 m/S 743 mmHg 88%
    07:00 0°C° 0,2 mm 3 m/S 744 mmHg 88%
    08:00 +1°C° 0,2 mm 3 m/S 744 mmHg 88%
    09:00 +1°C° 0,2 mm 3 m/S 744 mmHg 89%
    10:00 +2°C° 0,1 mm 3 m/S 745 mmHg 89%
    11:00 +3°C° 0,1 mm 3 m/S 745 mmHg 89%
    12:00 +4°C° 0,1 mm 2 m/S 745 mmHg 89%
    13:00 +4°C° 0,1 mm 2 m/S 745 mmHg 90%
    14:00 +4°C° 0,1 mm 2 m/S 745 mmHg 92%
    15:00 +4°C° 0,1 mm 1 m/S 746 mmHg 93%
    16:00 +3°C° 0 mm 2 m/S 746 mmHg 93%
    17:00 +2°C° 0 mm 2 m/S 747 mmHg 94%
    18:00 +2°C° 0 mm 2 m/S 747 mmHg 94%
    19:00 +2°C° 0 mm 2 m/S 748 mmHg 93%
    20:00 +1°C° 0 mm 2 m/S 748 mmHg 93%
    21:00 +1°C° 0 mm 2 m/S 749 mmHg 92%
    22:00 +1°C° 0,1 mm 3 m/S 749 mmHg 91%
    23:00 +1°C° 0,1 mm 3 m/S 749 mmHg 90%

    16 Dezember, Samstag

    Zeit Temperatur Niederschläge Wind Luftdruck Luftfeuchtigkeit
    00:00 +1°C° 0,1 mm 3 m/S 750 mmHg 89%
    01:00 +1°C° 0,1 mm 3 m/S 750 mmHg 88%
    02:00 0°C° 0,1 mm 4 m/S 750 mmHg 88%
    03:00 0°C° 0,1 mm 4 m/S 750 mmHg 87%
    04:00 0°C° 0,1 mm 4 m/S 751 mmHg 86%
    05:00 0°C° 0,1 mm 4 m/S 751 mmHg 85%
    06:00 0°C° 0,1 mm 4 m/S 751 mmHg 85%
    07:00 0°C° 0,1 mm 4 m/S 752 mmHg 84%
    08:00 0°C° 0,1 mm 4 m/S 753 mmHg 83%
    09:00 +1°C° 0,1 mm 4 m/S 753 mmHg 82%
    10:00 +1°C° 0,2 mm 4 m/S 754 mmHg 81%
    11:00 +3°C° 0,2 mm 4 m/S 754 mmHg 79%
    12:00 +4°C° 0,2 mm 4 m/S 755 mmHg 78%
    13:00 +3°C° 0,1 mm 4 m/S 755 mmHg 79%
    14:00 +3°C° 0,1 mm 4 m/S 756 mmHg 80%
    15:00 +3°C° 0,1 mm 4 m/S 756 mmHg 81%
    16:00 +1°C° 0 mm 4 m/S 757 mmHg 81%
    17:00 +1°C° 0 mm 4 m/S 758 mmHg 82%
    18:00 0°C° 0 mm 4 m/S 759 mmHg 82%
    19:00 +1°C° 0 mm 3 m/S 759 mmHg 83%
    20:00 +1°C° 0 mm 3 m/S 760 mmHg 84%
    21:00 +1°C° 0 mm 3 m/S 761 mmHg 85%
    22:00 +1°C° 0 mm 3 m/S 761 mmHg 86%
    23:00 0°C° 0 mm 3 m/S 762 mmHg 86%

    17 Dezember, Sonntag

    Zeit Temperatur Niederschläge Wind Luftdruck Luftfeuchtigkeit
    00:00 0°C° 0 mm 3 m/S 762 mmHg 86%
    01:00 0°C° 0 mm 3 m/S 763 mmHg 87%
    02:00 0°C° 0 mm 3 m/S 763 mmHg 87%
    03:00 0°C° 0 mm 3 m/S 764 mmHg 87%
    04:00 0°C° 0 mm 3 m/S 764 mmHg 88%
    05:00 0°C° 0 mm 3 m/S 765 mmHg 89%
    06:00 +1°C° 0 mm 2 m/S 765 mmHg 89%
    07:00 +1°C° 0 mm 2 m/S 766 mmHg 89%
    08:00 +1°C° 0 mm 2 m/S 767 mmHg 89%
    09:00 +2°C° 0 mm 2 m/S 767 mmHg 88%
    10:00 +2°C° 0 mm 2 m/S 767 mmHg 86%
    11:00 +3°C° 0 mm 2 m/S 768 mmHg 84%
    12:00 +3°C° 0 mm 3 m/S 768 mmHg 83%
    13:00 +3°C° 0 mm 3 m/S 768 mmHg 85%
    14:00 +2°C° 0 mm 3 m/S 768 mmHg 88%
    15:00 +2°C° 0 mm 3 m/S 768 mmHg 90%
    16:00 +1°C° 0 mm 3 m/S 768 mmHg 91%
    17:00 +1°C° 0 mm 3 m/S 768 mmHg 92%
    18:00 0°C° 0 mm 3 m/S 769 mmHg 93%
    19:00 0°C° 0 mm 3 m/S 769 mmHg 93%
    20:00 -1°C° 0 mm 4 m/S 768 mmHg 93%
    21:00 -1°C° 0 mm 4 m/S 768 mmHg 93%
    22:00 0°C° 0 mm 4 m/S 768 mmHg 93%
    23:00 0°C° 0 mm 4 m/S 767 mmHg 94%

    18 Dezember, Montag

    Zeit Temperatur Niederschläge Wind Luftdruck Luftfeuchtigkeit
    00:00 0°C° 0 mm 5 m/S 767 mmHg 94%
    01:00 0°C° 0,1 mm 5 m/S 766 mmHg 94%
    02:00 +1°C° 0,1 mm 5 m/S 765 mmHg 93%
    03:00 +1°C° 0,1 mm 5 m/S 765 mmHg 93%
    04:00 +2°C° 0,8 mm 6 m/S 764 mmHg 93%
    05:00 +3°C° 0,8 mm 6 m/S 763 mmHg 93%
    06:00 +3°C° 0,8 mm 6 m/S 762 mmHg 93%
    07:00 +4°C° 0,7 mm 6 m/S 762 mmHg 94%
    08:00 +5°C° 0,7 mm 5 m/S 762 mmHg 94%
    09:00 +6°C° 0,7 mm 5 m/S 762 mmHg 95%
    10:00 +6°C° 0,1 mm 5 m/S 762 mmHg 93%
    11:00 +7°C° 0,1 mm 5 m/S 762 mmHg 92%
    12:00 +7°C° 0,1 mm 5 m/S 762 mmHg 91%
    13:00 +7°C° 0,1 mm 5 m/S 762 mmHg 91%
    14:00 +7°C° 0,1 mm 5 m/S 763 mmHg 91%
    15:00 +6°C° 0,1 mm 4 m/S 763 mmHg 91%
    16:00 +6°C° 0,1 mm 4 m/S 764 mmHg 91%
    17:00 +6°C° 0,1 mm 5 m/S 764 mmHg 90%
    18:00 +6°C° 0,1 mm 5 m/S 765 mmHg 90%
    19:00 +6°C° 0,1 mm 4 m/S 766 mmHg 89%
    20:00 +5°C° 0,1 mm 4 m/S 766 mmHg 89%
    21:00 +5°C° 0,1 mm 4 m/S 767 mmHg 88%
    22:00 +5°C° 0 mm 4 m/S 768 mmHg 87%
    23:00 +5°C° 0 mm 3 m/S 768 mmHg 85%
    Mehr zeigen